This is the latest recevied weather packets stored in our database for station/object KD7MPG-3. If no packets are shown the sender has not sent any weather packets the latest 1 day(s).
| Time | Temp. | Humidity | Pressure | Rain* | Wind** | Luminosity | Snow |
|---|---|---|---|---|---|---|---|
| 1778019037 | 17.78° C | 78% | 1024.8 hPa | 0 mm | 0 m/s | - | - |
| 1778018738 | 17.78° C | 77% | 1024.8 hPa | 0 mm | 0.45 m/s, 266° | - | - |
| 1778018431 | 17.78° C | 78% | 1024.8 hPa | 0 mm | 0.89 m/s, 269° | - | - |
| 1778018130 | 17.78° C | 77% | 1024.8 hPa | 0 mm | 0.89 m/s, 230° | - | - |
| 1778017831 | 17.78° C | 77% | 1024.8 hPa | 0 mm | 0.45 m/s, 302° | - | - |
| 1778017533 | 17.78° C | 76% | 1024.8 hPa | 0 mm | 0.45 m/s, 306° | - | - |
| 1778017231 | 17.78° C | 76% | 1024.8 hPa | 0 mm | 0.89 m/s, 254° | - | - |
| 1778016932 | 17.78° C | 77% | 1024.9 hPa | 0 mm | 0.45 m/s, 321° | - | - |
| 1778016629 | 17.78° C | 77% | 1024.9 hPa | 0 mm | 0.45 m/s, 77° | - | - |
| 1778016326 | 17.22° C | 77% | 1024.9 hPa | 0 mm | 0.45 m/s, 19° | - | - |
| 1778016028 | 17.22° C | 77% | 1024.9 hPa | 0 mm | 0.45 m/s, 326° | - | - |
| 1778015727 | 17.22° C | 77% | 1024.8 hPa | 0 mm | 0.45 m/s, 296° | - | - |
| 1778015425 | 17.22° C | 77% | 1024.9 hPa | 0 mm | 0.45 m/s, 300° | - | - |
| 1778015126 | 17.22° C | 77% | 1024.9 hPa | 0 mm | 0.89 m/s, 279° | - | - |
| 1778014820 | 17.22° C | 77% | 1025 hPa | 0 mm | 0.45 m/s, 264° | - | - |
| 1778014521 | 17.22° C | 78% | 1025 hPa | 0 mm | 0.45 m/s, 325° | - | - |
| 1778014221 | 17.22° C | 77% | 1024.9 hPa | 0 mm | 0.45 m/s, 294° | - | - |
| 1778013922 | 17.22° C | 77% | 1025 hPa | 0 mm | 0.89 m/s, 267° | - | - |
| 1778013619 | 17.22° C | 77% | 1025.1 hPa | 0 mm | 0.89 m/s, 271° | - | - |
| 1778013320 | 16.67° C | 78% | 1025.1 hPa | 0 mm | 0.45 m/s, 298° | - | - |
| 1778013016 | 16.67° C | 78% | 1025 hPa | 0 mm | 0 m/s | - | - |
| 1778012715 | 16.67° C | 78% | 1025 hPa | 0 mm | 0 m/s | - | - |
| 1778012412 | 16.67° C | 78% | 1025 hPa | 0 mm | 0.45 m/s, 253° | - | - |
| 1778012113 | 16.67° C | 78% | 1025.2 hPa | 0 mm | 0.45 m/s, 254° | - | - |
| 1778011813 | 16.67° C | 78% | 1025.1 hPa | 0 mm | 0.45 m/s, 308° | - | - |
* Rain latest hour (hover to see other rain measurements)
** Current wind speed in m/s (hover to see current wind gust speed)